Location: Columbia
(38.9520°N, 92.3340°W)
Time: 07:11:53
(UTC-05:00)

Tiangong 1 - Visible Passes

Search period start: 30 August 2014 00:00
Search period end: 09 September 2014 00:00
Orbit: 368 x 373 km, 42.8° (Epoch: 30 August)

Date Brightness Start Highest point End Pass type
(mag) Time Alt. Az. Time Alt. Az. Time Alt. Az.
30 Aug 1.6 20:24:54 10° SW 20:27:47 39° SSE 20:30:18 13° E visible
30 Aug 3.7 22:01:12 10° W 22:02:16 19° W 22:02:16 19° W visible
31 Aug 1.0 20:57:00 10° WSW 21:00:04 77° NNW 21:01:26 30° ENE visible
01 Sep 2.1 21:29:30 10° W 21:32:19 42° NNW 21:32:19 42° NNW visible
02 Sep 1.5 20:25:08 10° W 20:28:09 58° NNW 20:31:07 11° ENE visible
02 Sep 3.9 22:01:58 10° WNW 22:03:02 19° WNW 22:03:02 19° WNW visible
03 Sep 2.1 20:57:34 10° WNW 21:00:28 38° N 21:01:42 26° NE visible
04 Sep 2.4 21:29:49 10° WNW 21:32:09 36° NNW 21:32:09 36° NNW visible
05 Sep 2.1 20:25:20 10° WNW 20:28:13 37° N 20:30:37 14° ENE visible
05 Sep 4.1 22:01:49 10° WNW 22:02:31 16° WNW 22:02:31 16° WNW visible
06 Sep 1.6 20:57:23 10° WNW 21:00:21 47° N 21:00:54 41° NE visible
07 Sep 2.0 19:52:49 10° WNW 19:55:44 39° N 19:58:38 10° ENE visible
07 Sep 2.6 21:29:14 10° WNW 21:31:09 35° WNW 21:31:09 35° WNW visible
08 Sep 1.3 20:24:40 10° WNW 20:27:42 58° NNE 20:29:27 22° E visible
08 Sep 4.5 22:01:15 10° W 22:01:20 11° W 22:01:20 11° W visible
